Time,TemperatureF,DewpointF,PressureIn,WindDirection,WindDirectionDegrees,WindSpeedMPH,WindSpeedGustMPH,Humidity,HourlyPrecipIn,Conditions,Clouds,dailyrainin,SoftwareType,DateUTC
2013-09-20 00:00:00,81.0,69.9,30.00,ENE,68,6.0,6.0,69,0.00,,,0.00,Wunderground v.1.15,2013-09-20 04:00:00,
2013-09-20 00:10:00,80.9,70.2,30.00,ENE,69,4.0,7.0,70,0.00,,,0.00,Wunderground v.1.15,2013-09-20 04:10:00,
2013-09-20 00:20:00,80.9,70.2,30.00,NE,41,5.0,5.0,70,0.00,,,0.00,Wunderground v.1.15,2013-09-20 04:20:00,
2013-09-20 00:30:00,80.8,69.7,30.00,East,94,4.0,6.0,69,0.00,,,0.00,Wunderground v.1.15,2013-09-20 04:30:00,
2013-09-20 00:40:00,80.9,69.8,30.00,ENE,70,5.0,5.0,69,0.00,,,0.00,Wunderground v.1.15,2013-09-20 04:40:00,
2013-09-20 00:50:00,80.8,70.1,29.99,ENE,67,4.0,4.0,70,0.00,,,0.00,Wunderground v.1.15,2013-09-20 04:50:00,
2013-09-20 01:00:00,80.7,70.0,29.99,East,82,4.0,5.0,70,0.00,,,0.00,Wunderground v.1.15,2013-09-20 05:00:00,
2013-09-20 01:10:00,80.7,70.0,29.99,ENE,62,5.0,7.0,70,0.00,,,0.00,Wunderground v.1.15,2013-09-20 05:10:00,
2013-09-20 01:20:00,80.6,69.5,29.99,East,82,4.0,4.0,69,0.00,,,0.00,Wunderground v.1.15,2013-09-20 05:20:00,
2013-09-20 01:30:00,80.6,70.3,29.99,ENE,72,4.0,7.0,71,0.00,,,0.00,Wunderground v.1.15,2013-09-20 05:30:00,
2013-09-20 01:40:00,80.7,70.0,29.99,ENE,75,5.0,5.0,70,0.00,,,0.00,Wunderground v.1.15,2013-09-20 05:40:00,
2013-09-20 01:50:00,80.7,70.0,29.98,ENE,60,4.0,4.0,70,0.00,,,0.00,Wunderground v.1.15,2013-09-20 05:50:00,
2013-09-20 02:00:00,80.7,70.0,29.99,ENE,59,4.0,4.0,70,0.00,,,0.00,Wunderground v.1.15,2013-09-20 06:00:00,
2013-09-20 02:10:00,80.5,69.4,29.98,East,101,4.0,4.0,69,0.00,,,0.00,Wunderground v.1.15,2013-09-20 06:10:00,
2013-09-20 02:20:00,80.4,69.7,29.98,East,85,4.0,4.0,70,0.00,,,0.00,Wunderground v.1.15,2013-09-20 06:20:00,
2013-09-20 02:30:00,80.4,69.3,29.98,East,96,4.0,5.0,69,0.00,,,0.00,Wunderground v.1.15,2013-09-20 06:30:00,
2013-09-20 02:40:00,80.3,68.8,29.98,NE,47,3.0,6.0,68,0.00,,,0.00,Wunderground v.1.15,2013-09-20 06:40:00,
2013-09-20 02:50:00,80.2,68.7,29.98,NE,47,3.0,3.0,68,0.00,,,0.00,Wunderground v.1.15,2013-09-20 06:50:00,
2013-09-20 03:00:00,80.2,68.7,29.98,East,87,4.0,4.0,68,0.00,,,0.00,Wunderground v.1.15,2013-09-20 07:00:00,
2013-09-20 03:10:00,80.1,68.6,29.97,ENE,61,3.0,3.0,68,0.00,,,0.00,Wunderground v.1.15,2013-09-20 07:10:00,
2013-09-20 03:20:00,80.2,69.5,29.97,ENE,59,4.0,10.0,70,0.00,,,0.00,Wunderground v.1.15,2013-09-20 07:20:00,
2013-09-20 03:30:00,80.2,69.5,29.97,ENE,67,6.0,9.0,70,0.00,,,0.00,Wunderground v.1.15,2013-09-20 07:30:00,
2013-09-20 03:40:00,80.1,69.0,29.97,NE,53,6.0,7.0,69,0.00,,,0.00,Wunderground v.1.15,2013-09-20 07:40:00,
2013-09-20 03:50:00,80.0,69.3,29.97,ENE,68,4.0,4.0,70,0.00,,,0.00,Wunderground v.1.15,2013-09-20 07:50:00,
2013-09-20 04:00:00,79.9,69.2,29.97,NNE,27,5.0,5.0,70,0.00,,,0.00,Wunderground v.1.15,2013-09-20 08:00:00,
2013-09-20 04:10:00,79.8,68.7,29.96,NE,34,4.0,5.0,69,0.00,,,0.00,Wunderground v.1.15,2013-09-20 08:10:00,
2013-09-20 04:20:00,79.8,68.3,29.96,NE,51,5.0,7.0,68,0.00,,,0.00,Wunderground v.1.15,2013-09-20 08:20:00,
2013-09-20 04:30:00,79.8,68.3,29.96,East,79,5.0,5.0,68,0.00,,,0.00,Wunderground v.1.15,2013-09-20 08:30:00,
2013-09-20 04:40:00,79.9,68.4,29.97,ENE,68,5.0,5.0,68,0.00,,,0.00,Wunderground v.1.15,2013-09-20 08:40:00,
2013-09-20 04:50:00,79.9,68.4,29.97,ENE,58,5.0,6.0,68,0.00,,,0.00,Wunderground v.1.15,2013-09-20 08:50:00,
2013-09-20 05:00:00,79.8,68.3,29.98,NE,48,5.0,5.0,68,0.00,,,0.00,Wunderground v.1.15,2013-09-20 09:00:00,
2013-09-20 05:10:00,79.8,67.9,29.98,NNE,32,4.0,5.0,67,0.00,,,0.00,Wunderground v.1.15,2013-09-20 09:10:00,
2013-09-20 05:20:00,79.8,67.9,29.98,East,94,4.0,5.0,67,0.00,,,0.00,Wunderground v.1.15,2013-09-20 09:20:00,
2013-09-20 05:30:00,79.6,67.7,29.98,ENE,57,4.0,4.0,67,0.00,,,0.00,Wunderground v.1.15,2013-09-20 09:30:00,
2013-09-20 05:40:00,79.8,67.9,29.98,ENE,76,5.0,5.0,67,0.00,,,0.00,Wunderground v.1.15,2013-09-20 09:40:00,
2013-09-20 05:50:00,79.7,67.8,29.98,ENE,62,3.0,6.0,67,0.00,,,0.00,Wunderground v.1.15,2013-09-20 09:50:00,
2013-09-20 06:00:00,79.6,67.7,29.98,East,94,3.0,3.0,67,0.00,,,0.00,Wunderground v.1.15,2013-09-20 10:00:00,
2013-09-20 06:10:00,79.6,67.7,29.98,ENE,58,4.0,4.0,67,0.00,,,0.00,Wunderground v.1.15,2013-09-20 10:10:00,
2013-09-20 06:20:00,79.6,67.7,29.98,East,81,3.0,3.0,67,0.00,,,0.00,Wunderground v.1.15,2013-09-20 10:20:00,
2013-09-20 06:30:00,79.2,67.3,29.98,NE,53,2.0,3.0,67,0.00,,,0.00,Wunderground v.1.15,2013-09-20 10:30:00,
2013-09-20 06:40:00,79.1,67.2,29.98,NE,47,3.0,3.0,67,0.00,,,0.00,Wunderground v.1.15,2013-09-20 10:40:00,
2013-09-20 06:50:00,78.9,67.4,29.98,NE,51,2.0,2.0,68,0.00,,,0.00,Wunderground v.1.15,2013-09-20 10:50:00,
2013-09-20 07:00:00,79.0,67.5,29.98,NE,51,3.0,4.0,68,0.00,,,0.00,Wunderground v.1.15,2013-09-20 11:00:00,
2013-09-20 07:10:00,78.9,67.4,29.98,NNE,23,2.0,2.0,68,0.00,,,0.00,Wunderground v.1.15,2013-09-20 11:10:00,
2013-09-20 07:20:00,78.8,67.8,29.98,NE,46,2.0,2.0,69,0.00,,,0.00,Wunderground v.1.15,2013-09-20 11:20:00,
2013-09-20 07:30:00,79.0,68.0,29.98,NE,56,2.0,2.0,69,0.00,,,0.00,Wunderground v.1.15,2013-09-20 11:30:00,
2013-09-20 07:40:00,79.3,67.8,29.97,ENE,57,3.0,3.0,68,0.00,,,0.00,Wunderground v.1.15,2013-09-20 11:40:00,
2013-09-20 07:50:00,79.7,67.3,29.97,ENE,61,2.0,2.0,66,0.00,,,0.00,Wunderground v.1.15,2013-09-20 11:50:00,
2013-09-20 08:00:00,79.9,67.5,29.98,ENE,62,3.0,3.0,66,0.00,,,0.00,Wunderground v.1.15,2013-09-20 12:00:00,
2013-09-20 08:10:00,79.8,67.4,29.98,NNE,27,3.0,4.0,66,0.00,,,0.00,Wunderground v.1.15,2013-09-20 12:10:00,
2013-09-20 08:20:00,80.3,67.5,29.98,ENE,78,4.0,7.0,65,0.00,,,0.00,Wunderground v.1.15,2013-09-20 12:20:00,
2013-09-20 08:30:00,81.3,68.0,29.99,ENE,74,5.0,5.0,64,0.00,,,0.00,Wunderground v.1.15,2013-09-20 12:30:00,
2013-09-20 08:40:00,81.9,68.5,29.99,ENE,72,5.0,5.0,64,0.00,,,0.00,Wunderground v.1.15,2013-09-20 12:40:00,
2013-09-20 08:50:00,82.3,68.9,29.99,NE,46,4.0,5.0,64,0.00,,,0.00,Wunderground v.1.15,2013-09-20 12:50:00,
2013-09-20 09:00:00,82.6,68.7,29.99,ENE,75,6.0,6.0,63,0.00,,,0.00,Wunderground v.1.15,2013-09-20 13:00:00,
2013-09-20 09:10:00,82.7,68.4,29.99,NE,43,7.0,12.0,62,0.00,,,0.00,Wunderground v.1.15,2013-09-20 13:10:00,
2013-09-20 09:50:00,83.2,68.3,30.00,East,89,7.0,7.0,61,0.00,,,0.00,Wunderground v.1.15,2013-09-20 13:50:00,
2013-09-20 10:00:00,83.1,68.7,30.00,SE,127,7.0,7.0,62,0.00,,,0.00,Wunderground v.1.15,2013-09-20 14:00:00,
2013-09-20 10:10:00,83.5,68.6,30.00,East,82,8.0,8.0,61,0.00,,,0.00,Wunderground v.1.15,2013-09-20 14:10:00,
2013-09-20 10:20:00,83.6,68.7,30.00,ENE,70,8.0,8.0,61,0.00,,,0.00,Wunderground v.1.15,2013-09-20 14:20:00,
2013-09-20 10:30:00,83.7,68.8,30.00,ENE,60,8.0,12.0,61,0.00,,,0.00,Wunderground v.1.15,2013-09-20 14:30:00,
2013-09-20 10:40:00,83.8,69.4,30.00,NNE,25,8.0,8.0,62,0.00,,,0.00,Wunderground v.1.15,2013-09-20 14:40:00,
2013-09-20 10:50:00,84.4,70.0,30.00,NE,54,6.0,12.0,62,0.00,,,0.00,Wunderground v.1.15,2013-09-20 14:50:00,
2013-09-20 11:00:00,84.1,70.1,30.01,NE,39,8.0,8.0,63,0.00,,,0.00,Wunderground v.1.15,2013-09-20 15:00:00,
2013-09-20 11:10:00,84.6,70.1,30.01,NNE,27,6.0,7.0,62,0.00,,,0.00,Wunderground v.1.15,2013-09-20 15:10:00,
2013-09-20 11:20:00,84.1,70.6,30.01,NNE,30,7.0,7.0,64,0.00,,,0.00,Wunderground v.1.15,2013-09-20 15:20:00,
2013-09-20 11:30:00,83.7,70.2,30.01,NE,39,7.0,7.0,64,0.00,,,0.00,Wunderground v.1.15,2013-09-20 15:30:00,
2013-09-20 11:40:00,84.4,70.0,30.01,NE,34,8.0,12.0,62,0.00,,,0.00,Wunderground v.1.15,2013-09-20 15:40:00,
2013-09-20 11:50:00,84.4,69.0,30.00,NE,43,8.0,9.0,60,0.00,,,0.00,Wunderground v.1.15,2013-09-20 15:50:00,
2013-09-20 12:00:00,84.3,69.9,30.01,ENE,76,9.0,10.0,62,0.00,,,0.00,Wunderground v.1.15,2013-09-20 16:00:00,
2013-09-20 12:10:00,84.3,69.4,30.00,North,11,9.0,9.0,61,0.00,,,0.00,Wunderground v.1.15,2013-09-20 16:10:00,
2013-09-20 12:20:00,84.4,69.5,30.00,NE,48,9.0,9.0,61,0.00,,,0.00,Wunderground v.1.15,2013-09-20 16:20:00,
2013-09-20 12:30:00,85.1,69.2,30.00,East,93,7.0,7.0,59,0.00,,,0.00,Wunderground v.1.15,2013-09-20 16:30:00,
2013-09-20 12:40:00,84.5,68.6,30.00,ENE,75,9.0,11.0,59,0.00,,,0.00,Wunderground v.1.15,2013-09-20 16:40:00,
2013-09-20 12:50:00,85.0,68.6,29.99,NE,54,7.0,7.0,58,0.00,,,0.00,Wunderground v.1.15,2013-09-20 16:50:00,
2013-09-20 13:00:00,85.0,69.1,29.99,NE,40,8.0,8.0,59,0.00,,,0.00,Wunderground v.1.15,2013-09-20 17:00:00,
2013-09-20 13:10:00,84.7,68.3,29.99,ENE,63,8.0,8.0,58,0.00,,,0.00,Wunderground v.1.15,2013-09-20 17:10:00,
2013-09-20 13:20:00,85.1,69.2,29.99,East,96,7.0,7.0,59,0.00,,,0.00,Wunderground v.1.15,2013-09-20 17:20:00,
2013-09-20 13:30:00,84.8,67.9,29.98,NE,34,8.0,8.0,57,0.00,,,0.00,Wunderground v.1.15,2013-09-20 17:30:00,
2013-09-20 13:40:00,85.1,68.7,29.98,ENE,64,7.0,7.0,58,0.00,,,0.00,Wunderground v.1.15,2013-09-20 17:40:00,
2013-09-20 13:50:00,85.0,68.1,29.97,ENE,76,7.0,7.0,57,0.00,,,0.00,Wunderground v.1.15,2013-09-20 17:50:00,
2013-09-20 14:00:00,84.8,67.9,29.97,East,94,7.0,13.0,57,0.00,,,0.00,Wunderground v.1.15,2013-09-20 18:00:00,
2013-09-20 14:10:00,84.5,67.6,29.96,NE,53,8.0,8.0,57,0.00,,,0.00,Wunderground v.1.15,2013-09-20 18:10:00,
2013-09-20 14:20:00,85.4,68.4,29.96,East,81,6.0,6.0,57,0.00,,,0.00,Wunderground v.1.15,2013-09-20 18:20:00,
2013-09-20 14:30:00,85.0,69.1,29.95,NE,49,7.0,10.0,59,0.00,,,0.00,Wunderground v.1.15,2013-09-20 18:30:00,
2013-09-20 14:40:00,85.8,68.3,29.95,ENE,70,6.0,6.0,56,0.00,,,0.00,Wunderground v.1.15,2013-09-20 18:40:00,
2013-09-20 14:50:00,85.2,68.2,29.95,NE,43,7.0,7.0,57,0.00,,,0.00,Wunderground v.1.15,2013-09-20 18:50:00,
2013-09-20 15:00:00,84.6,68.7,29.94,ENE,64,8.0,9.0,59,0.00,,,0.00,Wunderground v.1.15,2013-09-20 19:00:00,
2013-09-20 15:10:00,84.6,68.2,29.94,ENE,58,8.0,8.0,58,0.00,,,0.00,Wunderground v.1.15,2013-09-20 19:10:00,
2013-09-20 15:20:00,84.7,68.3,29.94,East,89,8.0,8.0,58,0.00,,,0.00,Wunderground v.1.15,2013-09-20 19:20:00,
2013-09-20 15:30:00,84.7,68.3,29.93,ENE,57,8.0,11.0,58,0.00,,,0.00,Wunderground v.1.15,2013-09-20 19:30:00,
2013-09-20 15:40:00,84.7,68.8,29.93,ENE,75,7.0,8.0,59,0.00,,,0.00,Wunderground v.1.15,2013-09-20 19:40:00,
2013-09-20 15:50:00,84.3,68.4,29.93,NE,37,8.0,8.0,59,0.00,,,0.00,Wunderground v.1.15,2013-09-20 19:50:00,
2013-09-20 16:00:00,84.6,69.2,29.93,East,99,8.0,8.0,60,0.00,,,0.00,Wunderground v.1.15,2013-09-20 20:00:00,
2013-09-20 16:10:00,84.6,68.7,29.93,NE,56,6.0,6.0,59,0.00,,,0.00,Wunderground v.1.15,2013-09-20 20:10:00,
2013-09-20 16:20:00,84.4,69.5,29.93,NNE,27,7.0,7.0,61,0.00,,,0.00,Wunderground v.1.15,2013-09-20 20:20:00,
2013-09-20 16:30:00,84.5,69.6,29.93,ENE,59,7.0,7.0,61,0.00,,,0.00,Wunderground v.1.15,2013-09-20 20:30:00,
2013-09-20 16:40:00,84.3,70.3,29.92,ENE,70,7.0,7.0,63,0.00,,,0.00,Wunderground v.1.15,2013-09-20 20:40:00,
2013-09-20 16:50:00,84.0,70.5,29.92,ENE,68,6.0,7.0,64,0.00,,,0.00,Wunderground v.1.15,2013-09-20 20:50:00,
2013-09-20 17:00:00,83.9,70.4,29.92,North,354,6.0,7.0,64,0.00,,,0.00,Wunderground v.1.15,2013-09-20 21:00:00,
2013-09-20 17:10:00,83.2,70.7,29.92,NE,51,6.0,6.0,66,0.00,,,0.00,Wunderground v.1.15,2013-09-20 21:10:00,
2013-09-20 17:20:00,83.3,70.3,29.92,ENE,57,5.0,6.0,65,0.00,,,0.00,Wunderground v.1.15,2013-09-20 21:20:00,
2013-09-20 17:30:00,83.1,70.1,29.92,NNE,33,6.0,7.0,65,0.00,,,0.00,Wunderground v.1.15,2013-09-20 21:30:00,
2013-09-20 17:40:00,83.4,70.8,29.92,North,6,5.0,6.0,66,0.00,,,0.00,Wunderground v.1.15,2013-09-20 21:40:00,
2013-09-20 17:50:00,83.1,70.6,29.92,ENE,64,6.0,6.0,66,0.00,,,0.00,Wunderground v.1.15,2013-09-20 21:50:00,
2013-09-20 18:00:00,83.6,71.0,29.92,NE,53,5.0,5.0,66,0.00,,,0.00,Wunderground v.1.15,2013-09-20 22:00:00,
2013-09-20 18:10:00,83.4,70.8,29.91,NE,43,7.0,8.0,66,0.00,,,0.00,Wunderground v.1.15,2013-09-20 22:10:00,
2013-09-20 18:20:00,83.2,71.1,29.91,East,87,6.0,6.0,67,0.00,,,0.00,Wunderground v.1.15,2013-09-20 22:20:00,
2013-09-20 18:30:00,82.8,72.0,29.91,NNE,31,6.0,6.0,70,0.00,,,0.00,Wunderground v.1.15,2013-09-20 22:30:00,
2013-09-20 18:40:00,81.8,71.5,29.92,NE,39,5.0,5.0,71,0.00,,,0.00,Wunderground v.1.15,2013-09-20 22:40:00,
2013-09-20 18:50:00,81.6,71.7,29.92,NNE,29,6.0,6.0,72,0.00,,,0.00,Wunderground v.1.15,2013-09-20 22:50:00,
2013-09-20 19:00:00,81.7,72.2,29.91,NNE,27,3.0,5.0,73,0.00,,,0.00,Wunderground v.1.15,2013-09-20 23:00:00,
2013-09-20 19:10:00,81.1,72.4,29.91,NNW,329,7.0,7.0,75,0.00,,,0.00,Wunderground v.1.15,2013-09-20 23:10:00,
2013-09-20 19:20:00,79.3,72.6,29.91,NNE,33,9.0,9.0,80,0.00,,,0.00,Wunderground v.1.15,2013-09-20 23:20:00,
2013-09-20 19:30:00,78.6,72.3,29.91,ENE,61,8.0,11.0,81,0.00,,,0.00,Wunderground v.1.15,2013-09-20 23:30:00,
2013-09-20 19:40:00,78.5,72.2,29.91,NE,43,8.0,8.0,81,0.00,,,0.00,Wunderground v.1.15,2013-09-20 23:40:00,
2013-09-20 19:50:00,78.6,72.6,29.91,NE,53,6.0,6.0,82,0.00,,,0.00,Wunderground v.1.15,2013-09-20 23:50:00,
2013-09-20 20:00:00,78.5,72.5,29.92,NNE,27,5.0,5.0,82,0.00,,,0.00,Wunderground v.1.15,2013-09-21 00:00:00,
2013-09-20 20:10:00,78.5,72.5,29.92,NNW,338,6.0,6.0,82,0.00,,,0.00,Wunderground v.1.15,2013-09-21 00:10:00,
2013-09-20 20:20:00,78.5,72.5,29.92,WNW,302,5.0,5.0,82,0.00,,,0.00,Wunderground v.1.15,2013-09-21 00:20:00,
2013-09-20 20:30:00,78.4,72.4,29.92,NE,40,3.0,4.0,82,0.00,,,0.00,Wunderground v.1.15,2013-09-21 00:30:00,
2013-09-20 20:40:00,78.4,72.1,29.92,North,353,2.0,2.0,81,0.00,,,0.00,Wunderground v.1.15,2013-09-21 00:40:00,
2013-09-20 20:50:00,78.4,72.1,29.92,NNW,332,2.0,2.0,81,0.00,,,0.00,Wunderground v.1.15,2013-09-21 00:50:00,
2013-09-20 21:00:00,78.3,72.0,29.92,NNW,346,1.0,1.0,81,0.00,,,0.00,Wunderground v.1.15,2013-09-21 01:00:00,
2013-09-20 21:10:00,78.3,72.0,29.93,NE,49,1.0,2.0,81,0.00,,,0.00,Wunderground v.1.15,2013-09-21 01:10:00,
2013-09-20 21:20:00,78.8,72.1,29.93,NE,47,2.0,3.0,80,0.00,,,0.00,Wunderground v.1.15,2013-09-21 01:20:00,
2013-09-20 21:30:00,79.6,71.8,29.93,NE,51,3.0,3.0,77,0.00,,,0.00,Wunderground v.1.15,2013-09-21 01:30:00,
2013-09-20 21:40:00,80.3,71.3,29.93,NE,44,4.0,4.0,74,0.00,,,0.00,Wunderground v.1.15,2013-09-21 01:40:00,
2013-09-20 21:50:00,80.9,69.8,29.94,East,86,5.0,5.0,69,0.00,,,0.00,Wunderground v.1.15,2013-09-21 01:50:00,
2013-09-20 22:00:00,81.1,70.0,29.94,ENE,77,5.0,5.0,69,0.00,,,0.00,Wunderground v.1.15,2013-09-21 02:00:00,
2013-09-20 22:10:00,81.1,69.5,29.94,East,85,5.0,5.0,68,0.00,,,0.00,Wunderground v.1.15,2013-09-21 02:10:00,
2013-09-20 22:20:00,81.2,70.1,29.94,ENE,78,5.0,5.0,69,0.00,,,0.00,Wunderground v.1.15,2013-09-21 02:20:00,
2013-09-20 22:30:00,81.2,70.5,29.93,East,94,5.0,5.0,70,0.00,,,0.00,Wunderground v.1.15,2013-09-21 02:30:00,
2013-09-20 22:40:00,81.3,71.0,29.93,East,82,5.0,5.0,71,0.00,,,0.00,Wunderground v.1.15,2013-09-21 02:40:00,
2013-09-20 22:50:00,81.3,70.6,29.93,ENE,60,5.0,6.0,70,0.00,,,0.00,Wunderground v.1.15,2013-09-21 02:50:00,
2013-09-20 23:00:00,81.2,70.1,29.93,East,84,5.0,7.0,69,0.00,,,0.00,Wunderground v.1.15,2013-09-21 03:00:00,
2013-09-20 23:10:00,81.2,70.9,29.92,ENE,67,4.0,6.0,71,0.00,,,0.00,Wunderground v.1.15,2013-09-21 03:10:00,
2013-09-20 23:20:00,81.0,70.7,29.93,ENE,76,4.0,6.0,71,0.00,,,0.00,Wunderground v.1.15,2013-09-21 03:20:00,
2013-09-20 23:30:00,81.0,70.3,29.93,ENE,68,5.0,5.0,70,0.00,,,0.00,Wunderground v.1.15,2013-09-21 03:30:00,
2013-09-20 23:40:00,81.1,70.8,29.93,ENE,71,4.0,4.0,71,0.00,,,0.00,Wunderground v.1.15,2013-09-21 03:40:00,
2013-09-20 23:50:00,81.1,70.8,29.93,East,100,3.0,3.0,71,0.00,,,0.00,Wunderground v.1.15,2013-09-21 03:50:00,